Location: Goettingen
(51.5300°N, 9.9433°E)
Time: 11:20:01
(UTC+02:00)

ISS - Pass Details

Date: 21 May 2019
Orbit: 407 x 410 km, 51.6° (Epoch: 21 May)

Event Time Altitude Azimuth Distance (km) Brightness Sun altitude
Rises 21:55:15 0° 231° (SW) 2,325 0.1 -5.8°
Reaches altitude 10° 21:57:24 10° 223° (SW) 1,467 -1.0 -6.0°
Maximum altitude 22:00:29 38° 154° (SSE) 637 -3.3 -6.4°
Drops below altitude 10° 22:03:36 10° 84° (E) 1,475 -1.4 -6.7°
Sets 22:05:45 0° 76° (ENE) 2,338 -0.3 -7.0°
